Simultaneous Nadir Overpasses (SNOs) Predictions

Prediction of SNOs between GOES-16 and TERRA Satellite Orbit:

Table of predicted SNOs for the next 14.0 days since TLE Epoch: 2/25/2023
Index Date Time (GOES-16) GOES-16 Lat,Lon TERRA Lat,Lon Distance(km) Time Diff (sec)
1 02/27/2023 02:56:31 -0.04, -75.19 0.60, -72.06 355.41 80
2 02/27/2023 15:19:28 0.04, -75.20 0.42, -76.99 203.20 80
3 03/01/2023 15:00:51 0.04, -75.22 -0.42, -73.14 236.24 80
4 03/02/2023 03:23:57 -0.04, -75.21 -0.64, -78.10 328.62 80
5 03/04/2023 03:05:19 -0.04, -75.23 0.17, -74.25 111.78 80
6 03/04/2023 15:25:36 0.04, -75.24 0.85, -79.18 446.60 80
7 03/06/2023 15:12:17 0.04, -75.27 0.07, -75.31 5.58 80
8 03/08/2023 14:56:19 0.04, -75.30 -0.78, -71.46 437.42 80
9 03/09/2023 03:16:44 -0.04, -75.30 -0.31, -76.41 126.53 80
10 03/11/2023 02:58:05 -0.04, -75.34 0.53, -72.55 316.68 80
